TimeEST,TemperatureF,Dew PointF,Humidity,Sea Level PressureIn,VisibilityMPH,Wind Direction,Wind SpeedMPH,Gust SpeedMPH,PrecipitationIn,Events,Conditions,WindDirDegrees,DateUTC
12:53 AM,53.1,51.1,93,30.12,10.0,North,4.6,-,N/A,,Clear,360,2012-11-22 05:53:00
1:53 AM,52.0,48.9,89,30.11,10.0,Calm,Calm,-,N/A,,Clear,0,2012-11-22 06:53:00
2:53 AM,54.0,50.0,86,30.10,10.0,North,5.8,-,N/A,,Clear,350,2012-11-22 07:53:00
3:53 AM,54.0,48.9,83,30.10,10.0,North,6.9,-,N/A,,Clear,350,2012-11-22 08:53:00
4:53 AM,53.1,48.0,83,30.10,10.0,North,8.1,-,N/A,,Clear,360,2012-11-22 09:53:00
5:53 AM,53.1,46.9,80,30.11,10.0,North,6.9,-,N/A,,Clear,360,2012-11-22 10:53:00
6:53 AM,53.1,46.9,80,30.13,10.0,North,6.9,-,N/A,,Clear,360,2012-11-22 11:53:00
7:53 AM,55.9,48.0,75,30.15,10.0,North,5.8,-,N/A,,Clear,350,2012-11-22 12:53:00
8:53 AM,61.0,48.0,62,30.17,10.0,North,9.2,-,N/A,,Clear,10,2012-11-22 13:53:00
9:53 AM,66.0,46.0,48,30.17,10.0,NNE,13.8,-,N/A,,Clear,20,2012-11-22 14:53:00
10:53 AM,71.1,41.0,34,30.16,10.0,NNE,13.8,-,N/A,,Clear,20,2012-11-22 15:53:00
11:53 AM,73.0,37.0,27,30.14,10.0,NNW,10.4,-,N/A,,Clear,340,2012-11-22 16:53:00
12:53 PM,75.0,32.0,21,30.12,10.0,North,19.6,24.2,N/A,,Clear,10,2012-11-22 17:53:00
1:53 PM,77.0,34.0,21,30.10,10.0,NNE,16.1,20.7,N/A,,Clear,30,2012-11-22 18:53:00
2:53 PM,75.9,37.0,24,30.09,10.0,NNE,13.8,21.9,N/A,,Clear,20,2012-11-22 19:53:00
3:53 PM,75.0,37.9,26,30.10,10.0,NNE,13.8,-,N/A,,Clear,30,2012-11-22 20:53:00
4:53 PM,72.0,39.0,30,30.12,10.0,NNE,11.5,-,N/A,,Clear,20,2012-11-22 21:53:00
5:53 PM,63.0,39.9,43,30.13,10.0,NNE,6.9,-,N/A,,Clear,20,2012-11-22 22:53:00
6:53 PM,57.9,41.0,53,30.16,10.0,NNE,5.8,-,N/A,,Clear,30,2012-11-22 23:53:00
7:53 PM,55.9,39.9,55,30.17,10.0,NNE,6.9,-,N/A,,Clear,30,2012-11-23 00:53:00
8:53 PM,54.0,39.9,59,30.19,10.0,NE,6.9,-,N/A,,Clear,40,2012-11-23 01:53:00
9:53 PM,51.1,39.9,66,30.20,10.0,NE,5.8,-,N/A,,Clear,40,2012-11-23 02:53:00
10:53 PM,48.9,39.0,69,30.21,10.0,NE,8.1,-,N/A,,Clear,40,2012-11-23 03:53:00
11:53 PM,48.9,36.0,61,30.19,10.0,NNE,6.9,-,N/A,,Clear,20,2012-11-23 04:53:00